Location: Washington
(38.8950°N, 77.0370°W)
Time: 15:53:06
(UTC-05:00)

ISS - All Passes

Search period start: 01 March 2015 00:00
Search period end: 11 March 2015 01:00
Orbit: 397 x 407 km, 51.6° (Epoch: 01 March)

Date Brightness Start Highest point End Pass type
(mag) Time Alt. Az. Time Alt. Az. Time Alt. Az.
01 Mar - 09:18:46 10° SW 09:21:57 65° SE 09:25:09 10° ENE daylight
01 Mar - 10:56:16 10° WNW 10:58:39 19° NNW 11:01:01 10° NNE daylight
01 Mar - 14:12:09 10° NNW 14:13:43 13° NNE 14:15:19 10° NE daylight
01 Mar - 15:47:34 10° NW 15:50:45 53° NE 15:53:56 10° ESE daylight
01 Mar - 17:25:00 10° W 17:26:54 14° SW 17:28:43 10° SSW daylight
02 Mar - 08:26:12 10° SSW 08:29:03 30° SE 08:31:57 10° ENE daylight
02 Mar - 10:02:37 10° W 10:05:28 28° NNW 10:08:20 10° NNE daylight
02 Mar - 11:42:28 10° NNW 11:42:46 10° N 11:43:02 10° N daylight
02 Mar - 13:19:54 10° N 13:20:23 10° N 13:20:54 10° NNE daylight
02 Mar - 14:54:45 10° NNW 14:57:39 29° NNE 15:00:34 10° E daylight
02 Mar - 16:31:12 10° WNW 16:34:03 28° SW 16:36:54 10° SSE daylight
03 Mar - 07:34:18 10° SSE 07:36:12 15° SE 07:38:11 10° E daylight
03 Mar - 09:09:13 10° WSW 09:12:22 50° NW 09:15:31 10° NE daylight
03 Mar - 10:47:54 10° NW 10:49:25 13° NNW 10:50:54 10° NNE daylight
03 Mar - 14:02:02 10° NNW 14:04:27 19° NNE 14:06:54 10° ENE daylight
03 Mar - 15:37:56 10° WNW 15:41:08 61° SW 15:44:20 10° SE daylight
04 Mar - 08:16:06 10° SW 08:19:18 80° SE 08:22:33 10° NE daylight
04 Mar - 09:53:52 10° WNW 09:56:05 17° NNW 09:58:18 10° NNE daylight
04 Mar - 13:09:23 10° NNW 13:11:09 14° NNE 13:12:57 10° NE daylight
04 Mar - 14:44:53 10° NW 14:48:06 64° NE 14:51:19 10° ESE daylight
04 Mar - 16:22:51 10° WSW 16:24:12 12° SW 16:25:25 10° SSW daylight
05 Mar - 07:23:20 10° SSW 07:26:19 36° SE 07:29:21 10° ENE daylight
05 Mar - 09:00:04 10° W 09:02:49 25° NNW 09:05:34 10° NNE daylight
05 Mar - 12:16:55 10° N 12:17:46 11° NNE 12:18:39 10° NNE daylight
05 Mar - 13:51:59 10° NW 13:54:58 34° NNE 13:57:58 10° E daylight
05 Mar - 15:28:37 10° WNW 15:31:18 24° SW 15:33:56 10° S daylight
06 Mar - 06:31:06 10° S 06:33:22 18° SE 06:35:42 10° E daylight
06 Mar - 08:06:30 10° WSW 08:09:36 42° NW 08:12:42 10° NE daylight
06 Mar - 09:45:26 10° NW 09:46:43 12° NNW 09:47:57 10° N daylight
06 Mar - 12:59:09 10° NNW 13:01:43 21° NNE 13:04:17 10° ENE daylight
06 Mar - 14:35:10 10° WNW 14:38:19 49° SW 14:41:27 10° SSE daylight
07 Mar - 07:13:13 10° SW 07:16:27 84° NW 07:19:41 10° NE daylight
07 Mar - 08:51:14 10° WNW 08:53:18 16° NNW 08:55:20 10° NNE daylight
07 Mar - 12:06:24 10° NNW 12:08:21 15° NNE 12:10:20 10° ENE daylight
07 Mar - 13:42:00 10° NW 13:45:14 77° NE 13:48:28 10° SE daylight
08 Mar - 07:20:16 10° SSW 07:23:22 44° SE 07:26:28 10° ENE daylight
08 Mar - 08:57:17 10° W 08:59:55 22° NNW 09:02:33 10° NNE daylight
08 Mar - 12:13:47 10° N 12:14:54 11° NNE 12:16:04 10° NE daylight
08 Mar - 13:48:58 10° NW 13:52:02 39° NNE 13:55:06 10° ESE daylight
08 Mar - 15:25:50 10° W 15:28:17 20° SW 15:30:42 10° S daylight
09 Mar - 06:27:48 10° S 06:30:19 22° SE 06:32:54 10° E visible
09 Mar - 08:03:35 10° WSW 08:06:36 36° NNW 08:09:39 10° NE daylight
09 Mar - 09:42:45 10° NNW 09:43:46 11° NNW 09:44:46 10° N daylight
09 Mar - 12:56:03 10° NNW 12:58:44 23° NNE 13:01:26 10° E daylight
09 Mar - 14:32:11 10° WNW 14:35:15 40° SW 14:38:18 10° SSE daylight
10 Mar - 05:36:36 10° SE 05:37:18 11° SE 05:38:10 10° ESE visible
10 Mar - 07:10:08 10° WSW 07:13:21 70° NW 07:16:35 10° NE daylight
10 Mar - 08:48:23 10° NW 08:50:16 14° NNW 08:52:08 10° NNE daylight
10 Mar - 12:03:12 10° NNW 12:05:18 16° NNE 12:07:27 10° ENE daylight
10 Mar - 13:38:53 10° NW 13:42:07 88° SW 13:45:21 10° SE daylight
